Simultaneous Nadir Overpasses (SNOs) Predictions

Prediction of SNOs between GOES-16 and NOAA-19 Satellite Orbit:

Table of predicted SNOs for the next 14.0 days since TLE Epoch: 5/24/2017
Index Date Time (GOES-16) GOES-16 Lat,Lon NOAA-19 Lat,Lon Distance(km) Time Diff (sec)
1 05/24/2017 21:17:15 0.00, -89.47 -0.33, -90.87 159.88 80
2 05/25/2017 21:08:28 -0.00, -89.47 0.35, -88.09 158.29 80
3 05/26/2017 20:57:01 0.00, -89.47 0.97, -85.30 476.37 80
4 05/28/2017 09:30:02 -0.00, -89.49 0.84, -93.22 425.27 80
5 05/29/2017 09:18:35 -0.01, -89.49 0.23, -90.43 107.20 80
6 05/30/2017 09:04:28 -0.01, -89.50 -0.43, -87.65 211.09 80
7 06/01/2017 21:26:04 0.01, -89.48 -0.78, -92.78 377.36 80
8 06/02/2017 21:14:38 0.01, -89.49 -0.09, -90.00 58.32 80
9 06/03/2017 21:05:50 0.02, -89.50 0.53, -87.21 260.86 80
10 06/06/2017 09:27:26 -0.02, -89.55 0.63, -92.35 320.33 80
11 06/07/2017 09:13:19 -0.02, -89.56 -0.04, -89.57 2.90 80




NCC Satellite Simultaneous Nadir Overpasses (SNOs) Prediction Service
